Location: Marcé
(47.5801°N, 0.3280°W)
Time: 04:04:00
(UTC+01:00)

Explorer 11/Cluster Stage 4 - Pass Details

Date: 08 December 2021
Orbit: 467 x 1255 km, 28.8° (Epoch: 26 January)

Event Time Altitude Azimuth Distance (km) Brightness Sun altitude
Rises 03:34:36 0° 233° (SW) 3,331 - -49.4°
Reaches altitude 10° 03:38:21 10° 208° (SSW) 2,580 - -48.8°
Maximum altitude 03:41:18 14° 180° (S) 2,454 - -48.4°
Drops below altitude 10° 03:44:31 10° 152° (SSE) 2,847 - -47.9°
Exits shadow 03:47:21 - 136° (SE) 3,499 10.1 -47.4°
Sets 03:49:04 0° 129° (SE) 3,966 10.5 -47.1°
